SWA4798 KSDF-KBNA

Flight info

Callsign SWA4798
Flight time 0h 35m
Altitude 22000
Route GTGON1 GTGON LOONE RYYMN3
Aircraft B738/M-SADE2E3GIJ4RWZ/LB1D1

Departure

Time 2026-05-04 09:27
Airport Louisville Muhammad Ali International Airport (KSDF)

Arrival

Time 2026-05-04 10:02
Airport Nashville International Airport (KBNA)
Time Latitude Longitude Altitude Speed Heading
2026-05-04 09:17 38.18333 -85.73834 488 ft 0 kts 328°
2026-05-04 09:20 38.18327 -85.73830 488 ft 2 kts 329°
2026-05-04 09:21 38.18314 -85.73820 478 ft 2 kts 329°
2026-05-04 09:21 38.18300 -85.73809 480 ft 2 kts 329°
2026-05-04 09:21 38.18288 -85.73800 480 ft 0 kts 341°
2026-05-04 09:23 38.18298 -85.73799 482 ft 4 kts 19°
2026-05-04 09:25 38.18629 -85.73178 490 ft 10 kts 106°
2026-05-04 09:25 38.18605 -85.73100 491 ft 9 kts 133°
2026-05-04 09:26 38.18557 -85.73072 492 ft 3 kts 163°
2026-05-04 09:26 38.18524 -85.73060 492 ft 15 kts 164°
2026-05-04 09:26 38.18062 -85.72902 489 ft 120 kts 165°
2026-05-04 09:26 38.16968 -85.72524 732 ft 191 kts 165°
2026-05-04 09:27 38.15635 -85.72063 1759 ft 205 kts 170°
2026-05-04 09:27 38.14213 -85.71581 2910 ft 214 kts 175°
2026-05-04 09:27 38.12705 -85.71086 3511 ft 236 kts 175°
2026-05-04 09:27 38.11082 -85.70557 4125 ft 245 kts 178°
2026-05-04 09:28 38.09426 -85.70670 4548 ft 238 kts 211°
2026-05-04 09:28 38.08176 -85.71919 5147 ft 231 kts 239°
2026-05-04 09:28 38.07465 -85.73765 5856 ft 235 kts 256°
2026-05-04 09:28 38.07019 -85.75787 6812 ft 240 kts 259°
2026-05-04 09:29 38.06607 -85.77841 7875 ft 241 kts 261°
2026-05-04 09:29 38.06504 -85.79972 8793 ft 244 kts 277°
2026-05-04 09:29 38.06736 -85.82120 9849 ft 247 kts 278°
2026-05-04 09:29 38.06960 -85.84322 10601 ft 261 kts 277°
2026-05-04 09:30 38.07171 -85.86743 10825 ft 291 kts 277°
2026-05-04 09:30 38.07399 -85.89420 11046 ft 318 kts 277°
2026-05-04 09:30 38.07446 -85.92303 11548 ft 335 kts 266°
2026-05-04 09:30 38.07087 -85.95235 12451 ft 338 kts 262°
2026-05-04 09:31 38.06735 -85.98193 13310 ft 341 kts 266°
2026-05-04 09:31 38.06588 -86.01216 14077 ft 346 kts 270°
2026-05-04 09:31 38.06524 -86.04291 14844 ft 349 kts 270°
2026-05-04 09:31 38.06411 -86.07390 15622 ft 353 kts 269°
2026-05-04 09:32 38.06241 -86.10475 16360 ft 357 kts 268°
2026-05-04 09:32 38.06032 -86.13632 17080 ft 362 kts 267°
2026-05-04 09:34 38.04265 -86.36624 21620 ft 385 kts 267°
2026-05-04 09:34 38.04004 -86.40030 21902 ft 387 kts 267°
2026-05-04 09:34 38.03741 -86.43436 21920 ft 389 kts 267°
2026-05-04 09:34 38.03475 -86.46892 21937 ft 399 kts 267°
2026-05-04 09:35 38.03202 -86.50418 21933 ft 404 kts 267°
2026-05-04 09:35 38.02757 -86.53936 21913 ft 406 kts 257°
2026-05-04 09:35 38.01434 -86.57130 21939 ft 416 kts 237°
2026-05-04 09:35 37.99382 -86.59765 21933 ft 425 kts 224°
2026-05-04 09:37 37.80410 -86.71464 21933 ft 436 kts 212°
2026-05-04 09:37 37.77672 -86.73133 21936 ft 437 kts 211°
2026-05-04 09:38 37.74921 -86.74780 21933 ft 438 kts 211°
2026-05-04 09:38 37.72205 -86.76493 21936 ft 435 kts 214°
2026-05-04 09:38 37.69633 -86.78477 21936 ft 431 kts 219°
2026-05-04 09:38 37.67185 -86.80646 21946 ft 430 kts 221°
2026-05-04 09:39 37.64768 -86.82870 21939 ft 430 kts 221°
2026-05-04 09:39 37.62345 -86.85072 21940 ft 430 kts 221°
2026-05-04 09:39 37.59892 -86.87245 21946 ft 431 kts 220°
2026-05-04 09:39 37.57419 -86.89385 21935 ft 431 kts 220°
2026-05-04 09:40 37.54940 -86.91498 21932 ft 430 kts 219°
2026-05-04 09:40 37.52454 -86.93603 21943 ft 430 kts 219°
2026-05-04 09:40 37.49971 -86.95702 21940 ft 430 kts 219°
2026-05-04 09:40 37.47485 -86.97805 21943 ft 430 kts 219°
2026-05-04 09:41 37.45005 -86.99904 21942 ft 430 kts 219°
2026-05-04 09:42 37.25582 -87.08350 21939 ft 448 kts 181°
2026-05-04 09:43 37.22474 -87.08150 21944 ft 447 kts 184°
2026-05-04 09:43 37.19374 -87.08185 21946 ft 445 kts 187°
2026-05-04 09:43 37.16278 -87.08354 21469 ft 444 kts 188°
2026-05-04 09:43 37.13217 -87.08553 20859 ft 438 kts 188°
2026-05-04 09:44 37.10196 -87.08733 20216 ft 432 kts 188°
2026-05-04 09:44 37.07213 -87.08884 19562 ft 427 kts 187°
2026-05-04 09:44 37.04260 -87.09010 18918 ft 422 kts 187°
2026-05-04 09:46 36.85435 -87.09703 15210 ft 381 kts 186°
2026-05-04 09:46 36.82844 -87.09769 15058 ft 366 kts 183°
2026-05-04 09:46 36.80357 -87.09273 14731 ft 365 kts 162°
2026-05-04 09:47 36.78114 -87.07876 14299 ft 355 kts 153°
2026-05-04 09:47 36.76006 -87.06345 13840 ft 346 kts 153°
2026-05-04 09:49 36.61259 -86.96873 10751 ft 328 kts 136°
2026-05-04 09:49 36.60067 -86.94550 10586 ft 313 kts 115°
2026-05-04 09:49 36.59283 -86.91989 9881 ft 318 kts 110°
2026-05-04 09:51 36.55343 -86.77504 7900 ft 267 kts 111°
2026-05-04 09:51 36.54738 -86.75354 7639 ft 260 kts 110°
2026-05-04 09:51 36.54169 -86.73244 7353 ft 255 kts 109°
2026-05-04 09:51 36.53617 -86.71153 6988 ft 254 kts 109°
2026-05-04 09:52 36.53065 -86.69071 6639 ft 253 kts 113°
2026-05-04 09:52 36.52081 -86.67324 6248 ft 246 kts 146°
2026-05-04 09:52 36.50626 -86.66299 5994 ft 237 kts 160°
2026-05-04 09:52 36.49124 -86.65454 5794 ft 237 kts 162°
2026-05-04 09:53 36.47599 -86.64653 5613 ft 239 kts 162°
2026-05-04 09:53 36.46061 -86.63854 5428 ft 241 kts 163°
2026-05-04 09:53 36.44509 -86.63070 5257 ft 241 kts 163°
2026-05-04 09:53 36.42948 -86.62290 5070 ft 242 kts 163°
2026-05-04 09:54 36.41386 -86.61506 4890 ft 243 kts 164°
2026-05-04 09:54 36.39805 -86.60705 4702 ft 245 kts 163°
2026-05-04 09:54 36.38255 -86.59915 4500 ft 243 kts 163°
2026-05-04 09:54 36.36706 -86.59119 4309 ft 239 kts 164°
2026-05-04 09:55 36.35179 -86.58324 4136 ft 236 kts 165°
2026-05-04 09:55 36.33636 -86.57945 3955 ft 217 kts 195°
2026-05-04 09:55 36.32251 -86.58427 3864 ft 200 kts 207°
2026-05-04 09:55 36.30956 -86.58949 3689 ft 190 kts 204°
2026-05-04 09:56 36.29736 -86.59400 3542 ft 176 kts 205°
2026-05-04 09:56 36.28623 -86.59824 3393 ft 158 kts 207°
2026-05-04 09:56 36.27583 -86.60234 3247 ft 155 kts 207°
2026-05-04 09:56 36.26561 -86.60643 3129 ft 154 kts 207°
2026-05-04 09:57 36.25548 -86.61049 2993 ft 152 kts 207°
2026-05-04 09:57 36.24544 -86.61451 2870 ft 152 kts 206°
2026-05-04 09:57 36.23539 -86.61854 2673 ft 150 kts 206°
2026-05-04 09:57 36.22564 -86.62243 2470 ft 145 kts 206°
2026-05-04 09:58 36.21606 -86.62626 2285 ft 145 kts 205°
2026-05-04 09:58 36.20649 -86.63011 2092 ft 146 kts 204°
2026-05-04 09:58 36.19693 -86.63392 1896 ft 143 kts 204°
2026-05-04 10:00 36.13405 -86.65915 577 ft 107 kts 197°
2026-05-04 10:00 36.12774 -86.66162 566 ft 81 kts 197°
2026-05-04 10:02 36.12397 -86.66983 584 ft 17 kts 345°
2026-05-04 10:04 36.12724 -86.66913 580 ft 0 kts 42°